[[{"header":{"parameterUnit":"m.s-1","parameterCategory":1,"la1":30.2991,"la2":30.254,"lo1":-89.0895,"lo2":-89.0444,"dy":0.0017,"dx":0.0017,"nx":28,"ny":28,"refTime":"2025-03-26T03:00:00:Z","depth":0,"parameterNumber":2,"parameterNumberName":"U-component_of_WINDS"},"data":[0,0,0,0,0,0,0,0,0,0,0,0,0,0,0,0,0,0,0,0,0,0,0,0,0,0,0,0,0,0,0,0,0,0,0,0,0,0,0,0,0,0,0,0,0,0,0,0,0,0,0,0,0,0,0,0,0,0,-4.4854,-4.4854,0,-4.4863,-4.4863,-4.4863,-4.4771,-4.4769,-4.4766,-4.4764,-4.4773,-4.4776,-4.4778,0,0,0,0,0,0,0,0,0,0,0,0,0,-4.4759,-4.4761,-4.4854,-4.4854,-4.4854,-4.4862,-4.4863,-4.4863,-4.4772,-4.4769,-4.4766,-4.4763,-4.4773,-4.4776,-4.4779,0,0,0,0,0,0,0,0,0,0,0,0,0,-4.4787,-4.4762,-4.4853,-4.4809,-4.4806,-4.4862,-4.4863,-4.4863,-4.4772,-4.4769,-4.4765,-4.4761,-4.4772,-4.4775,-4.4779,-4.4879,0,0,-4.4791,-4.4793,0,0,0,0,0,0,0,0,-4.4786,-4.4791,-4.4816,-4.4813,-4.4808,-4.4812,-4.4833,-4.4868,-4.4773,-4.4785,-4.4764,-4.4759,-4.4789,-4.4791,-4.4801,-4.4879,-4.488,-4.4791,-4.4794,-4.4795,-4.4797,0,0,0,0,0,0,0,-4.4784,-4.479,-4.4857,-4.4816,-4.4812,-4.479,-4.479,-4.4839,-4.4808,-4.4784,-4.4777,-4.4779,-4.4786,-4.4798,-4.4801,-4.488,-4.4791,-4.4795,-4.4797,-4.4799,-4.5041,-4.5044,0,0,0,0,0,0,-4.4788,-4.4789,-4.4857,-4.4857,-4.4788,-4.4795,-4.4794,-4.4815,-4.4807,-4.4803,-4.4783,-4.4775,-4.4793,-4.4797,-4.4801,-4.4916,-4.4795,-4.4799,-4.4801,-4.5037,-4.5041,-4.5046,0,0,0,0,0,0,-4.4786,-4.4795,-4.4856,-4.4821,-4.4828,-4.48,-4.4824,-4.4817,-4.4828,-4.4807,-4.4801,-4.48,-4.479,-4.4795,-4.486,-4.4916,-4.4801,-4.4804,-4.5032,-4.5038,-4.5044,-4.5149,0,0,0,0,0,0,-4.4784,-4.4795,-4.4832,-4.4823,-4.483,-4.4915,-4.4827,-4.482,-4.4835,-4.4825,-4.4821,-4.4817,-4.4788,-4.4855,-4.4864,-4.4919,-4.4807,-4.5027,-4.5035,-4.5042,-4.514,-4.5158,-4.5173,0,0,0,0,0,-4.4781,-4.4861,-4.4834,-4.4843,-4.4875,-4.4918,-4.4922,-4.4887,-4.484,-4.4877,-4.4864,-4.4817,-4.4909,-4.4862,-4.4872,-4.4929,-4.5023,-4.5032,-4.5041,-4.5133,-4.5155,-4.5173,0,0,0,0,0,0,-4.4876,-4.4859,-4.4829,-4.4908,-4.4916,-4.4903,-4.4948,-4.4911,-4.4932,-4.4922,-4.4878,-4.4877,-4.4949,-4.4946,-4.4894,-4.5025,-4.4958,-4.4969,-4.5024,-4.5044,-4.506,-4.5058,-4.4811,0,0,0,0,0,-4.4907,-4.4943,-4.4926,-4.4998,-4.5003,-4.4976,-4.4993,-4.4966,-4.4971,-4.4974,-4.4965,-4.4973,-4.5003,-4.5024,-4.5051,-4.5141,-4.5138,-4.5185,-4.5201,-4.5215,-4.5224,-4.5272,-4.5292,-4.5076,-4.5076,-4.5076,0,0,-4.4969,-4.4965,-4.499,-4.5017,-4.5019,-4.5058,-4.4979,-4.5023,-4.5051,-4.4981,-4.504,-4.5035,-4.5041,-4.5119,-4.5153,-4.5118,-4.5284,-4.5227,-4.5237,-4.524,-4.5283,-4.5304,-4.5322,-4.5082,-4.5081,-4.508,0,0,-4.5103,-4.5104,-4.5163,-4.5168,-4.5173,-4.5154,-4.5169,-4.5163,-4.5156,-4.5217,-4.5165,-4.5199,-4.5252,-4.5258,-4.5269,-4.5409,-4.5366,-4.5419,-4.5503,-4.5549,-4.5566,-4.5581,-4.563,-4.5648,-4.5429,-4.543,-4.543,0,-4.518,-4.5236,-4.5199,-4.5246,-4.526,-4.52,-4.526,-4.5266,-4.528,-4.5291,-4.5253,-4.532,-4.5319,-4.5397,-4.5432,-4.5443,-4.5458,-4.5417,-4.5567,-4.5581,-4.5595,-4.5641,-4.5659,-4.5436,-4.5435,-4.5434,-4.5434,0,-4.533,-4.537,-4.5418,-4.5432,-4.5452,-4.5506,-4.5478,-4.5502,-4.5475,-4.5461,-4.5523,-4.5522,-4.5547,-4.5565,-4.5538,-4.564,-4.5618,-4.5575,-4.5505,-4.5622,-4.5664,-4.5682,-4.5445,-4.5442,-4.544,-4.5439,0,0,-4.5519,-4.5516,-4.5534,-4.554,-4.5543,-4.5573,-4.5626,-4.5651,-4.5672,-4.5685,-4.5727,-4.5776,-4.5736,-4.5748,-4.5722,-4.5763,-4.5873,-4.5714,-4.5714,-4.5742,-4.5985,-4.6016,-4.6037,-4.5847,-4.585,-4.5853,-4.5984,0,-4.5648,-4.5736,-4.5705,-4.5795,-4.5831,-4.5776,-4.5822,-4.5829,-4.5819,-4.5849,-4.5837,-4.5872,-4.5817,-4.5824,-4.5863,-4.5852,-4.5921,-4.5842,-4.5885,-4.5887,-4.5882,-4.6059,-4.6091,-4.6215,-4.6,-4.6003,-4.6005,0,-4.5808,-4.5828,-4.5922,-4.5919,-4.5933,-4.5975,-4.5996,-4.6026,-4.6034,-4.6023,-4.6038,-4.6004,-4.6056,-4.599,-4.606,-4.6007,-4.6024,-4.6022,-4.6026,-4.6026,-4.5951,-4.6062,-4.6253,-4.6271,-4.6031,-4.6029,-4.6027,0,-4.5935,-4.5986,-4.6048,-4.6055,-4.6055,-4.6085,-4.6086,-4.609,-4.6108,-4.6128,-4.6139,-4.6165,-4.6179,-4.62,-4.6174,-4.6128,-4.6249,-4.618,-4.6241,-4.6241,-4.6265,-4.6264,-4.646,-4.6281,-4.6281,-4.6281,-4.628,0,-4.608,-4.6139,-4.6105,-4.6143,-4.6208,-4.6174,-4.6239,-4.6234,-4.6239,-4.6275,-4.6231,-4.6266,-4.6231,-4.6264,-4.6245,-4.6306,-4.6313,-4.6306,-4.6299,-4.6308,-4.6309,-4.6316,-4.6306,-4.6286,-4.6284,-4.6283,-4.6283,0,-4.6231,-4.6211,-4.6275,-4.627,-4.627,-4.6318,-4.6314,-4.6349,-4.6337,-4.6384,-4.6393,-4.6374,-4.641,-4.6388,-4.6425,-4.6412,-4.6491,-4.6474,-4.6488,-4.6483,-4.6544,-4.6538,-4.6749,-4.6775,-4.6582,-4.6584,-4.6586,0,-4.6323,-4.6367,-4.6368,-4.6389,-4.6393,-4.6428,-4.6447,-4.6416,-4.6437,-4.6451,-4.6485,-4.6518,-4.6541,-4.6603,-4.6592,-4.6621,-4.6602,-4.6675,-4.6606,-4.6614,-4.6601,-4.6598,-4.6602,-4.6688,-4.669,-4.6692,-4.6693,0,-4.6489,-4.6477,-4.6505,-4.653,-4.6553,-4.6572,-4.6586,-4.6607,-4.6576,-4.6603,-4.6639,-4.6658,-4.6697,-4.673,-4.6754,-4.6756,-4.672,-4.6716,-4.6731,-4.6739,-4.6744,-4.674,-4.6523,-4.671,-4.6708,-4.6707,-4.6706,-4.6705,-4.6611,-4.6648,-4.6654,-4.6687,-4.6695,-4.6711,-4.6744,-4.6737,-4.6767,-4.6795,-4.6776,-4.682,-4.6829,-4.6858,-4.6865,-4.6899,-4.6869,-4.6892,-4.6897,-4.6902,-4.691,-4.6742,-4.6904,-4.6903,-4.6903,-4.6902,-4.6902,0,-4.6772,-4.6774,-4.6805,-4.6828,-4.6854,-4.682,-4.6835,-4.6859,-4.6898,-4.6909,-4.6934,-4.6977,-4.701,-4.7004,-4.7033,-4.7062,-4.7046,-4.707,-4.7066,-4.7067,-4.6935,-4.6918,-4.7083,-4.7083,-4.7083,-4.7083,-4.7083,-4.7083,-4.6859,-4.6919,-4.6909,-4.6973,-4.6975,-4.7017,-4.7029,-4.7043,-4.7052,-4.7102,-4.7129,-4.7125,-4.7129,-4.7159,-4.7188,-4.7185,-4.7197,-4.7228,-4.7219,-4.7095,-4.7077,-4.7059,-4.7043,-4.7231,-4.7231,-4.7348,-4.7349,-4.735]},{"header":{"parameterUnit":"m.s-1","parameterCategory":1,"la1":30.2991,"la2":30.254,"lo1":-89.0895,"lo2":-89.0444,"dy":0.0017,"dx":0.0017,"nx":28,"ny":28,"refTime":"2025-03-26T03:00:00:Z","depth":0,"parameterNumber":3,"parameterNumberName":"V-component_of_WINDS"},"data":[0,0,0,0,0,0,0,0,0,0,0,0,0,0,0,0,0,0,0,0,0,0,0,0,0,0,0,0,0,0,0,0,0,0,0,0,0,0,0,0,0,0,0,0,0,0,0,0,0,0,0,0,0,0,0,0,0,0,1.9364,1.9365,0,1.9468,1.9469,1.947,1.9526,1.9526,1.9526,1.9526,1.9628,1.9631,1.9633,0,0,0,0,0,0,0,0,0,0,0,0,0,1.9212,1.9214,1.9364,1.9365,1.9367,1.9468,1.9469,1.947,1.9526,1.9526,1.9526,1.9526,1.9627,1.963,1.9633,0,0,0,0,0,0,0,0,0,0,0,0,0,1.9293,1.9215,1.9364,1.9407,1.9411,1.9467,1.9469,1.9471,1.9526,1.9526,1.9526,1.9526,1.9626,1.963,1.9634,1.9654,0,0,1.9646,1.9647,0,0,0,0,0,0,0,0,1.9288,1.9298,1.9399,1.9404,1.9409,1.9484,1.9453,1.9532,1.9526,1.9482,1.9526,1.9526,1.958,1.9587,1.9606,1.9659,1.9663,1.9646,1.9648,1.965,1.9651,0,0,0,0,0,0,0,1.9282,1.9294,1.9405,1.94,1.9407,1.942,1.9431,1.9468,1.9528,1.9486,1.949,1.9502,1.9583,1.9602,1.9609,1.9665,1.9646,1.9649,1.9652,1.9653,1.9741,1.9741,0,0,0,0,0,0,1.927,1.9289,1.9402,1.9408,1.9348,1.9422,1.9435,1.946,1.9528,1.9539,1.9502,1.9504,1.9596,1.9605,1.9613,1.9642,1.965,1.9654,1.9656,1.9741,1.9741,1.9741,0,0,0,0,0,0,1.9267,1.928,1.9397,1.935,1.9366,1.9425,1.9452,1.9462,1.9482,1.954,1.9551,1.9511,1.9596,1.9607,1.9644,1.9647,1.9655,1.9659,1.9741,1.9741,1.9741,1.97,0,0,0,0,0,0,1.9262,1.9278,1.9287,1.935,1.9368,1.9427,1.9452,1.9464,1.9489,1.9493,1.9552,1.9562,1.9597,1.9638,1.9648,1.9652,1.9662,1.9741,1.9741,1.9741,1.9702,1.9699,1.9697,0,0,0,0,0,1.9257,1.927,1.9287,1.93,1.938,1.9427,1.9438,1.948,1.9489,1.9498,1.9536,1.956,1.9645,1.9641,1.9653,1.9658,1.9741,1.9741,1.9741,1.9703,1.97,1.9697,0,0,0,0,0,0,1.9204,1.9279,1.9299,1.9333,1.9374,1.9437,1.9449,1.9475,1.9512,1.9515,1.9564,1.9576,1.9609,1.9637,1.9632,1.9682,1.9695,1.9698,1.9663,1.966,1.9657,1.965,1.9665,0,0,0,0,0,1.9197,1.923,1.9293,1.9317,1.9337,1.939,1.9412,1.9441,1.9484,1.9501,1.9542,1.9582,1.9618,1.964,1.9677,1.9706,1.972,1.9716,1.9713,1.9711,1.9712,1.9732,1.9731,1.9741,1.9741,1.9741,0,0,1.9181,1.9226,1.9244,1.9308,1.9343,1.9376,1.9404,1.9436,1.9461,1.9506,1.9544,1.9575,1.9623,1.9657,1.9673,1.9681,1.9713,1.9711,1.9709,1.9711,1.9731,1.9731,1.973,1.974,1.974,1.974,0,0,1.917,1.9208,1.9233,1.9268,1.9321,1.9357,1.9363,1.9423,1.9446,1.9485,1.952,1.9549,1.961,1.9644,1.9668,1.9673,1.9697,1.9683,1.967,1.9688,1.9687,1.9687,1.9689,1.9689,1.9684,1.9684,1.9684,0,1.9144,1.9196,1.9242,1.9274,1.9301,1.9346,1.9372,1.9403,1.9464,1.9482,1.9491,1.9569,1.9605,1.9648,1.9649,1.9667,1.9676,1.9676,1.9684,1.9684,1.9684,1.9687,1.9688,1.9682,1.9682,1.9683,1.9683,0,1.9162,1.9197,1.9211,1.9272,1.9301,1.9329,1.9379,1.9403,1.943,1.9464,1.9504,1.9549,1.9595,1.9608,1.9633,1.9655,1.9658,1.9674,1.9688,1.968,1.9684,1.9685,1.9679,1.968,1.9681,1.9681,0,0,1.9119,1.9207,1.9212,1.9241,1.9304,1.9332,1.9362,1.941,1.943,1.9471,1.9498,1.955,1.9566,1.9594,1.9624,1.964,1.9642,1.9655,1.9657,1.9652,1.967,1.9658,1.9658,1.9659,1.9659,1.966,1.9666,0,1.9118,1.9177,1.922,1.9262,1.9296,1.9339,1.9366,1.9408,1.9441,1.9474,1.951,1.9546,1.9564,1.9582,1.96,1.9638,1.9647,1.9638,1.9684,1.9685,1.9671,1.966,1.9647,1.9651,1.9668,1.9668,1.9669,0,1.9124,1.9166,1.9212,1.9274,1.9289,1.9313,1.9361,1.9392,1.944,1.9463,1.9496,1.9528,1.9562,1.9573,1.9621,1.9615,1.9636,1.9658,1.9659,1.9665,1.9676,1.9666,1.9654,1.9654,1.9671,1.9671,1.9671,0,1.9089,1.9158,1.9195,1.9218,1.929,1.9306,1.9337,1.9385,1.9412,1.9454,1.9472,1.9516,1.954,1.9574,1.9616,1.962,1.9661,1.9675,1.9681,1.968,1.9687,1.9686,1.9678,1.97,1.97,1.97,1.97,0,1.9084,1.911,1.9181,1.9203,1.9235,1.9284,1.9313,1.9348,1.9391,1.9421,1.946,1.9487,1.9542,1.9575,1.9608,1.9644,1.9654,1.9674,1.9683,1.9671,1.9668,1.9685,1.9686,1.97,1.97,1.97,1.97,0,1.905,1.9099,1.9142,1.9208,1.9225,1.9245,1.9301,1.9325,1.9361,1.9398,1.941,1.9466,1.9508,1.9554,1.9611,1.9633,1.9667,1.9679,1.9651,1.9656,1.966,1.9659,1.9663,1.9666,1.9685,1.9685,1.9684,0,1.9044,1.9065,1.9135,1.9158,1.9189,1.9226,1.9254,1.9304,1.9331,1.9389,1.9406,1.9451,1.949,1.9554,1.96,1.9643,1.9657,1.9656,1.9664,1.9652,1.9658,1.9657,1.9659,1.9653,1.9652,1.9652,1.9652,0,1.9027,1.905,1.909,1.9139,1.9171,1.9212,1.9253,1.927,1.9328,1.9357,1.9401,1.9432,1.9491,1.9535,1.9585,1.9616,1.9644,1.9649,1.9653,1.9641,1.9625,1.9635,1.9645,1.9649,1.9649,1.9649,1.9649,1.9649,1.9007,1.903,1.9082,1.9126,1.9163,1.9201,1.9227,1.9268,1.9306,1.9359,1.9386,1.943,1.9479,1.955,1.958,1.9615,1.9623,1.9629,1.963,1.9631,1.9628,1.9619,1.9624,1.9624,1.9624,1.9624,1.9624,0,1.8994,1.903,1.907,1.9128,1.9162,1.9187,1.9235,1.9262,1.9301,1.9345,1.9383,1.9434,1.9478,1.9528,1.9575,1.9593,1.9607,1.9604,1.9603,1.961,1.9617,1.961,1.9592,1.9592,1.9592,1.9592,1.9592,1.9592,1.899,1.903,1.906,1.9118,1.9155,1.92,1.9225,1.9261,1.9297,1.9353,1.939,1.9423,1.947,1.9521,1.9562,1.9576,1.9591,1.9584,1.9601,1.9607,1.961,1.9612,1.9605,1.9587,1.9587,1.9592,1.9592,1.9592]}]]